This is the latest recevied weather packets stored in our database for station/object N4WFF. If no packets are shown the sender has not sent any weather packets the latest 10 day(s).
| Time | Temp. | Humidity | Pressure | Rain* | Wind** | Luminosity | Snow |
|---|---|---|---|---|---|---|---|
| 1777833055 | 22.78° C | 38% | 1019.9 hPa | 0 mm | - | 963 W/m² | - |
| 1777832755 | 22.22° C | 40% | 1019.8 hPa | 0 mm | - | 969 W/m² | - |
| 1777832455 | 22.22° C | 39% | 1019.8 hPa | 0 mm | - | 973 W/m² | - |
| 1777832156 | 22.78° C | 39% | 1019.9 hPa | 0 mm | - | 980 W/m² | - |
| 1777831855 | 22.22° C | 41% | 1020 hPa | 0 mm | - | 981 W/m² | - |
| 1777831556 | 22.22° C | 40% | 1020.1 hPa | 0 mm | - | 983 W/m² | - |
| 1777831256 | 21.67° C | 41% | 1020 hPa | 0 mm | - | 986 W/m² | - |
| 1777830955 | 21.67° C | 40% | 1020.1 hPa | 0 mm | - | 990 W/m² | - |
| 1777830655 | 22.22° C | 41% | 1020.3 hPa | 0 mm | - | 992 W/m² | - |
| 1777830355 | 22.22° C | 41% | 1020.3 hPa | 0 mm | - | 992 W/m² | - |
| 1777830055 | 22.22° C | 38% | 1020.5 hPa | 0 mm | - | 993 W/m² | - |
| 1777829756 | 22.22° C | 40% | 1020.6 hPa | 0 mm | - | 995 W/m² | - |
| 1777829455 | 22.22° C | 41% | 1020.7 hPa | 0 mm | - | 992 W/m² | - |
| 1777829155 | 21.67° C | 38% | 1020.5 hPa | 0 mm | - | 990 W/m² | - |
| 1777828856 | 21.67° C | 40% | 1020.7 hPa | 0 mm | - | 62 W/m² | - |
| 1777828556 | 21.67° C | 39% | 1020.7 hPa | 0 mm | - | 986 W/m² | - |
| 1777828255 | 21.67° C | 40% | 1020.9 hPa | 0 mm | - | 981 W/m² | - |
| 1777827955 | 21.67° C | 43% | 1021 hPa | 0 mm | - | 977 W/m² | - |
| 1777827656 | 21.67° C | 40% | 1021.1 hPa | 0 mm | - | 972 W/m² | - |
| 1777827355 | 21.67° C | 40% | 1021.2 hPa | 0 mm | - | 968 W/m² | - |
| 1777827055 | 21.67° C | 39% | 1021.2 hPa | 0 mm | - | 963 W/m² | - |
| 1777826755 | 21.67° C | 40% | 1021.3 hPa | 0 mm | - | 958 W/m² | - |
| 1777826455 | 21.67° C | 39% | 1021.5 hPa | 0 mm | - | 950 W/m² | - |
| 1777826155 | 21.67° C | 39% | 1021.5 hPa | 0 mm | - | 942 W/m² | - |
| 1777825855 | 21.67° C | 40% | 1021.6 hPa | 0 mm | - | 935 W/m² | - |
* Rain latest hour (hover to see other rain measurements)
** Current wind speed in m/s (hover to see current wind gust speed)